PulseSat

PulseSat

MOLNIYA 1-49

Last updated on April 19, 2019, 2:59 a.m. UTC

1 12156U 81009A   19108.18631723 -.00001120  00000-0  34107-3 0  9996
2 12156  63.0178 339.0819 7252932 248.2498  24.5744  2.05708837197735
UTC
Height (km)
Latitude
Longitude
Inclination
Orbital Period

Next 30 passes for location: Hong Kong

Rise time Rise Azimuth (degrees) Set time Set Azimuth (degrees) Duration Max altitude (degrees)

No matching passes for this satellites

PulseSat

PulseSat is the new satellites software and hardware trackering solution by Pulsely.
Satellite Two Line Element Set source: US Air Force Space Command

Download PulseSat for iOS
© 2017 Pulsely Limited